[[{"header":{"parameterUnit":"m.s-1","parameterCategory":1,"la1":30.2991,"la2":30.254,"lo1":-89.0895,"lo2":-89.0444,"dy":0.0017,"dx":0.0017,"nx":28,"ny":28,"refTime":"2024-03-12T03:00:00:Z","depth":0,"parameterNumber":2,"parameterNumberName":"U-component_of_WINDS"},"data":[0,0,0,0,0,0,0,0,0,0,0,0,0,0,0,0,0,0,0,0,0,0,0,0,0,0,0,0,0,0,0,0,0,0,0,0,0,0,0,0,0,0,0,0,0,0,0,0,0,0,0,0,0,0,0,0,0,0,-1.8759,-1.8759,0,-1.8806,-1.8807,-1.8807,-1.8781,-1.8779,-1.8778,-1.8777,-1.8826,-1.8828,-1.8831,0,0,0,0,0,0,0,0,0,0,0,0,0,-1.8648,-1.865,-1.8759,-1.876,-1.876,-1.8806,-1.8807,-1.8807,-1.8781,-1.8779,-1.8778,-1.8776,-1.8825,-1.8828,-1.8831,0,0,0,0,0,0,0,0,0,0,0,0,0,-1.8696,-1.8651,-1.8759,-1.8752,-1.8752,-1.8806,-1.8807,-1.8807,-1.8781,-1.8779,-1.8777,-1.8775,-1.8824,-1.8828,-1.8832,-1.8894,0,0,-1.8843,-1.8845,0,0,0,0,0,0,0,0,-1.8693,-1.87,-1.8753,-1.8753,-1.8753,-1.8785,-1.8785,-1.8837,-1.8782,-1.877,-1.8777,-1.8774,-1.8814,-1.8819,-1.8832,-1.8897,-1.8899,-1.8844,-1.8846,-1.8847,-1.8849,0,0,0,0,0,0,0,-1.869,-1.8698,-1.8778,-1.8754,-1.8754,-1.8748,-1.8752,-1.8795,-1.8803,-1.8771,-1.8769,-1.8775,-1.8814,-1.8828,-1.8833,-1.8899,-1.8843,-1.8847,-1.8849,-1.8851,-1.9019,-1.9021,0,0,0,0,0,0,-1.8687,-1.8695,-1.8776,-1.8779,-1.8718,-1.8751,-1.8757,-1.8777,-1.8802,-1.8804,-1.8777,-1.8774,-1.8823,-1.8828,-1.8834,-1.891,-1.8847,-1.8851,-1.8853,-1.9017,-1.902,-1.9022,0,0,0,0,0,0,-1.8684,-1.8694,-1.8774,-1.8737,-1.8746,-1.8755,-1.8779,-1.8779,-1.8793,-1.8806,-1.8808,-1.879,-1.8821,-1.8829,-1.888,-1.8911,-1.8853,-1.8856,-1.9014,-1.9018,-1.9021,-1.9061,0,0,0,0,0,0,-1.8681,-1.8694,-1.8717,-1.8737,-1.8748,-1.8818,-1.8781,-1.8781,-1.88,-1.8796,-1.8819,-1.8821,-1.882,-1.8874,-1.8884,-1.8915,-1.8859,-1.9012,-1.9016,-1.902,-1.9057,-1.9066,-1.9073,0,0,0,0,0,-1.8678,-1.8726,-1.8718,-1.8728,-1.8778,-1.882,-1.8827,-1.8824,-1.8802,-1.8826,-1.8835,-1.882,-1.8906,-1.888,-1.889,-1.8923,-1.901,-1.9015,-1.9019,-1.9054,-1.9064,-1.9073,0,0,0,0,0,0,-1.871,-1.8729,-1.872,-1.8777,-1.8797,-1.8816,-1.8846,-1.8835,-1.8862,-1.8858,-1.8855,-1.886,-1.8913,-1.8923,-1.8893,-1.8986,-1.8955,-1.8962,-1.8977,-1.8987,-1.8995,-1.8991,-1.8862,0,0,0,0,0,-1.8723,-1.8756,-1.8771,-1.882,-1.883,-1.8836,-1.8855,-1.8852,-1.8872,-1.8881,-1.8893,-1.8914,-1.8946,-1.8967,-1.8997,-1.9059,-1.9064,-1.9087,-1.9095,-1.9101,-1.9107,-1.9142,-1.9152,-1.9038,-1.9038,-1.9038,0,0,-1.8752,-1.8767,-1.8787,-1.8827,-1.8842,-1.8876,-1.8844,-1.8881,-1.8906,-1.8887,-1.8935,-1.8945,-1.8969,-1.9025,-1.9051,-1.9036,-1.914,-1.9107,-1.9112,-1.9115,-1.9148,-1.9159,-1.9168,-1.9042,-1.9041,-1.904,0,0,-1.8821,-1.8836,-1.8878,-1.8894,-1.8918,-1.8922,-1.8932,-1.8952,-1.8958,-1.9007,-1.8993,-1.9024,-1.9078,-1.9096,-1.9112,-1.919,-1.9178,-1.92,-1.924,-1.9274,-1.9283,-1.9291,-1.9319,-1.9329,-1.9206,-1.9206,-1.9206,0,-1.8854,-1.8904,-1.8901,-1.894,-1.8958,-1.8942,-1.8985,-1.9001,-1.9034,-1.9047,-1.9029,-1.9098,-1.9113,-1.9174,-1.9193,-1.9206,-1.9219,-1.9197,-1.9282,-1.929,-1.9297,-1.9324,-1.9335,-1.9209,-1.9208,-1.9208,-1.9208,0,-1.8944,-1.8979,-1.9011,-1.9042,-1.9064,-1.9105,-1.9109,-1.9131,-1.9127,-1.9133,-1.9183,-1.92,-1.9234,-1.9248,-1.9244,-1.9309,-1.9299,-1.9282,-1.925,-1.9311,-1.9336,-1.9346,-1.9212,-1.9211,-1.9211,-1.921,0,0,-1.9034,-1.9064,-1.9076,-1.909,-1.9116,-1.9143,-1.9184,-1.9217,-1.9237,-1.926,-1.9294,-1.9342,-1.9326,-1.9344,-1.9342,-1.9371,-1.9433,-1.9351,-1.9351,-1.9366,-1.9507,-1.9519,-1.9531,-1.9425,-1.9427,-1.9429,-1.9505,0,-1.9106,-1.9176,-1.9175,-1.9241,-1.9274,-1.926,-1.9295,-1.9315,-1.9322,-1.9352,-1.936,-1.9393,-1.937,-1.9381,-1.941,-1.9419,-1.9461,-1.9414,-1.9458,-1.9459,-1.9452,-1.9545,-1.9558,-1.9629,-1.9515,-1.9516,-1.9517,0,-1.9198,-1.9224,-1.9294,-1.9315,-1.9329,-1.9361,-1.9391,-1.942,-1.9442,-1.9445,-1.9467,-1.946,-1.9502,-1.947,-1.9528,-1.9496,-1.9514,-1.9522,-1.9525,-1.9529,-1.9492,-1.9551,-1.9652,-1.9662,-1.9533,-1.9532,-1.9531,0,-1.9258,-1.931,-1.9359,-1.9372,-1.9398,-1.9421,-1.9433,-1.9453,-1.9473,-1.95,-1.9514,-1.9545,-1.9563,-1.9588,-1.959,-1.9566,-1.965,-1.9617,-1.9654,-1.9654,-1.9672,-1.9671,-1.9777,-1.9683,-1.9683,-1.9683,-1.9683,0,-1.9337,-1.938,-1.9386,-1.9416,-1.9464,-1.9463,-1.951,-1.952,-1.9539,-1.9571,-1.9561,-1.9591,-1.9593,-1.9624,-1.9627,-1.9675,-1.9683,-1.9687,-1.9688,-1.9688,-1.9688,-1.97,-1.9695,-1.9686,-1.9685,-1.9685,-1.9684,0,-1.9412,-1.9417,-1.9469,-1.949,-1.9496,-1.9531,-1.9548,-1.9577,-1.9584,-1.9625,-1.9634,-1.9644,-1.9681,-1.9686,-1.9729,-1.9731,-1.9789,-1.9784,-1.9782,-1.9781,-1.9818,-1.9814,-1.9935,-1.9951,-1.9847,-1.9848,-1.9849,0,-1.9462,-1.9495,-1.9519,-1.954,-1.9553,-1.9587,-1.9607,-1.9608,-1.963,-1.9659,-1.9685,-1.972,-1.9748,-1.9808,-1.982,-1.9853,-1.9848,-1.9889,-1.9853,-1.9853,-1.985,-1.9848,-1.9851,-1.9895,-1.9896,-1.9897,-1.9898,0,-1.9552,-1.9553,-1.9583,-1.9614,-1.9639,-1.9664,-1.9687,-1.9705,-1.9709,-1.9734,-1.9771,-1.9793,-1.9838,-1.9873,-1.9906,-1.9919,-1.991,-1.9909,-1.992,-1.9921,-1.9918,-1.9921,-1.98,-1.9906,-1.9906,-1.9905,-1.9905,-1.9904,-1.9616,-1.9645,-1.9666,-1.9701,-1.9718,-1.9741,-1.9769,-1.9779,-1.981,-1.9846,-1.9845,-1.9886,-1.9909,-1.9952,-1.9968,-2.0,-1.9987,-2.0002,-2.0006,-2.001,-2.0014,-1.9913,-2.0006,-2.0006,-2.0006,-2.0006,-2.0006,0,-1.9705,-1.9718,-1.975,-1.9783,-1.981,-1.9799,-1.9824,-1.9848,-1.9884,-1.9906,-1.9935,-1.9978,-2.0013,-2.0028,-2.0063,-2.0086,-2.0083,-2.0095,-2.0093,-2.0097,-2.0023,-2.0011,-2.0097,-2.0097,-2.0097,-2.0097,-2.0097,-2.0097,-1.9754,-1.9803,-1.9807,-1.9864,-1.9878,-1.9918,-1.9934,-1.9955,-1.9972,-2.0021,-2.005,-2.006,-2.0079,-2.0115,-2.0147,-2.0151,-2.0164,-2.0179,-2.018,-2.0111,-2.0102,-2.0093,-2.0081,-2.0182,-2.0182,-2.0251,-2.0252,-2.0253]},{"header":{"parameterUnit":"m.s-1","parameterCategory":1,"la1":30.2991,"la2":30.254,"lo1":-89.0895,"lo2":-89.0444,"dy":0.0017,"dx":0.0017,"nx":28,"ny":28,"refTime":"2024-03-12T03:00:00:Z","depth":0,"parameterNumber":3,"parameterNumberName":"V-component_of_WINDS"},"data":[0,0,0,0,0,0,0,0,0,0,0,0,0,0,0,0,0,0,0,0,0,0,0,0,0,0,0,0,0,0,0,0,0,0,0,0,0,0,0,0,0,0,0,0,0,0,0,0,0,0,0,0,0,0,0,0,0,0,-0.6428,-0.6428,0,-0.6466,-0.6467,-0.6467,-0.6463,-0.6462,-0.6462,-0.6461,-0.6501,-0.6503,-0.6504,0,0,0,0,0,0,0,0,0,0,0,0,0,-0.6352,-0.6353,-0.6428,-0.6428,-0.6429,-0.6466,-0.6467,-0.6467,-0.6463,-0.6462,-0.6461,-0.6461,-0.6501,-0.6502,-0.6504,0,0,0,0,0,0,0,0,0,0,0,0,0,-0.6387,-0.6354,-0.6428,-0.6431,-0.6432,-0.6466,-0.6467,-0.6467,-0.6463,-0.6462,-0.6461,-0.646,-0.65,-0.6502,-0.6505,-0.6538,0,0,-0.6512,-0.6513,0,0,0,0,0,0,0,0,-0.6385,-0.639,-0.643,-0.6431,-0.6432,-0.6459,-0.6455,-0.6491,-0.6463,-0.6451,-0.6461,-0.646,-0.6488,-0.6491,-0.65,-0.654,-0.6542,-0.6512,-0.6514,-0.6515,-0.6516,0,0,0,0,0,0,0,-0.6383,-0.6388,-0.6443,-0.6431,-0.6432,-0.6431,-0.6435,-0.6461,-0.6474,-0.6452,-0.6452,-0.6457,-0.6488,-0.6498,-0.6501,-0.6542,-0.6512,-0.6514,-0.6516,-0.6517,-0.6611,-0.6612,0,0,0,0,0,0,-0.6379,-0.6386,-0.6442,-0.6444,-0.6406,-0.6433,-0.6438,-0.6451,-0.6474,-0.6476,-0.6457,-0.6456,-0.6494,-0.6498,-0.6503,-0.6543,-0.6515,-0.6517,-0.6519,-0.661,-0.6611,-0.6612,0,0,0,0,0,0,-0.6378,-0.6384,-0.644,-0.6415,-0.6422,-0.6435,-0.6451,-0.6452,-0.6462,-0.6478,-0.648,-0.6465,-0.6494,-0.6499,-0.6529,-0.6544,-0.6518,-0.6521,-0.6609,-0.661,-0.6612,-0.6624,0,0,0,0,0,0,-0.6376,-0.6384,-0.6396,-0.6415,-0.6424,-0.6466,-0.6452,-0.6454,-0.6466,-0.6465,-0.6486,-0.6488,-0.6493,-0.6526,-0.6532,-0.6547,-0.6522,-0.6607,-0.6609,-0.6611,-0.6623,-0.6626,-0.6629,0,0,0,0,0,-0.6373,-0.6399,-0.6397,-0.6404,-0.644,-0.6467,-0.6472,-0.6477,-0.6468,-0.6481,-0.649,-0.6487,-0.6542,-0.6529,-0.6535,-0.6552,-0.6606,-0.6609,-0.6611,-0.6621,-0.6625,-0.6629,0,0,0,0,0,0,-0.6382,-0.6401,-0.64,-0.6433,-0.6448,-0.6466,-0.6483,-0.6481,-0.65,-0.6498,-0.6504,-0.6509,-0.6539,-0.6549,-0.6534,-0.6586,-0.6573,-0.6577,-0.6578,-0.6582,-0.6586,-0.6583,-0.6524,0,0,0,0,0,-0.6387,-0.6407,-0.6424,-0.6451,-0.6459,-0.6469,-0.6482,-0.6484,-0.6501,-0.6507,-0.6519,-0.6536,-0.6556,-0.657,-0.659,-0.6624,-0.6628,-0.6639,-0.6642,-0.6645,-0.6648,-0.6666,-0.6671,-0.662,-0.662,-0.662,0,0,-0.6399,-0.6413,-0.6425,-0.6453,-0.6466,-0.6486,-0.6475,-0.6498,-0.6513,-0.6511,-0.654,-0.6549,-0.6568,-0.66,-0.6615,-0.6609,-0.6663,-0.6647,-0.6649,-0.6651,-0.6669,-0.6674,-0.6678,-0.6621,-0.6621,-0.6621,0,0,-0.6432,-0.6444,-0.6468,-0.6481,-0.6499,-0.6506,-0.6512,-0.653,-0.6536,-0.6565,-0.6563,-0.6582,-0.6618,-0.6631,-0.6642,-0.668,-0.6678,-0.6686,-0.6703,-0.6721,-0.6725,-0.6729,-0.6742,-0.6747,-0.6689,-0.6689,-0.6689,0,-0.6445,-0.6476,-0.6481,-0.6503,-0.6516,-0.6514,-0.6538,-0.655,-0.6575,-0.6583,-0.6576,-0.6621,-0.6633,-0.6668,-0.6677,-0.6687,-0.6693,-0.6684,-0.6724,-0.6728,-0.6731,-0.6744,-0.6749,-0.669,-0.669,-0.669,-0.669,0,-0.6491,-0.6512,-0.6529,-0.6553,-0.6567,-0.659,-0.6599,-0.6613,-0.6614,-0.6622,-0.6651,-0.6666,-0.6689,-0.6697,-0.6699,-0.6733,-0.6728,-0.6723,-0.671,-0.6737,-0.6749,-0.6754,-0.6691,-0.6691,-0.6691,-0.6691,0,0,-0.653,-0.6555,-0.6561,-0.6572,-0.6592,-0.6609,-0.6632,-0.6654,-0.6666,-0.6683,-0.6703,-0.6733,-0.6727,-0.674,-0.6744,-0.6759,-0.6788,-0.6752,-0.6752,-0.6758,-0.6826,-0.683,-0.6835,-0.6786,-0.6787,-0.6788,-0.6824,0,-0.6564,-0.6606,-0.661,-0.6647,-0.6667,-0.6666,-0.6686,-0.6701,-0.6708,-0.6727,-0.6735,-0.6756,-0.6748,-0.6756,-0.6771,-0.6781,-0.6801,-0.6779,-0.6805,-0.6806,-0.6801,-0.6842,-0.6846,-0.6879,-0.6829,-0.683,-0.683,0,-0.661,-0.6628,-0.6666,-0.6684,-0.6692,-0.6711,-0.6731,-0.6748,-0.6765,-0.677,-0.6784,-0.6785,-0.6809,-0.6796,-0.6829,-0.6813,-0.6825,-0.6831,-0.6833,-0.6835,-0.682,-0.6845,-0.689,-0.6895,-0.6838,-0.6837,-0.6836,0,-0.6635,-0.6668,-0.6696,-0.6705,-0.6726,-0.6738,-0.6748,-0.6763,-0.6776,-0.6794,-0.6802,-0.6823,-0.6834,-0.685,-0.6857,-0.6846,-0.689,-0.6877,-0.6895,-0.6895,-0.6904,-0.6904,-0.6951,-0.6911,-0.6911,-0.6911,-0.6911,0,-0.6673,-0.6697,-0.6707,-0.6724,-0.675,-0.6756,-0.6782,-0.6791,-0.6805,-0.6823,-0.6823,-0.6841,-0.6849,-0.6867,-0.6873,-0.69,-0.6905,-0.6909,-0.6911,-0.6909,-0.6909,-0.6917,-0.6915,-0.6913,-0.6912,-0.6912,-0.6912,0,-0.6705,-0.6713,-0.6743,-0.676,-0.6765,-0.6783,-0.6798,-0.6815,-0.6822,-0.6845,-0.6851,-0.6863,-0.6885,-0.6893,-0.692,-0.6924,-0.6955,-0.6954,-0.6949,-0.695,-0.6967,-0.6965,-0.7021,-0.7029,-0.6984,-0.6985,-0.6985,0,-0.6729,-0.6747,-0.6766,-0.6778,-0.6788,-0.6808,-0.682,-0.6826,-0.684,-0.686,-0.6874,-0.6896,-0.6914,-0.6949,-0.696,-0.6981,-0.6981,-0.6999,-0.6984,-0.6982,-0.6981,-0.698,-0.6982,-0.7002,-0.7002,-0.7003,-0.7003,0,-0.677,-0.6773,-0.6791,-0.6811,-0.6826,-0.6842,-0.6858,-0.6868,-0.6876,-0.6891,-0.6914,-0.6928,-0.6955,-0.6977,-0.6998,-0.7008,-0.7007,-0.7008,-0.7013,-0.7012,-0.7008,-0.701,-0.6957,-0.7006,-0.7006,-0.7006,-0.7006,-0.7005,-0.6798,-0.6814,-0.683,-0.685,-0.6863,-0.6877,-0.6893,-0.6902,-0.6921,-0.6944,-0.6946,-0.697,-0.6986,-0.7015,-0.7025,-0.7045,-0.704,-0.7047,-0.7049,-0.7051,-0.7052,-0.7005,-0.7048,-0.7048,-0.7048,-0.7048,-0.7048,0,-0.6839,-0.6849,-0.6868,-0.689,-0.6906,-0.6903,-0.692,-0.6934,-0.6955,-0.697,-0.6987,-0.7013,-0.7034,-0.7047,-0.7068,-0.7081,-0.7081,-0.7086,-0.7085,-0.7088,-0.7055,-0.7049,-0.7086,-0.7086,-0.7086,-0.7086,-0.7086,-0.7086,-0.6862,-0.6889,-0.6894,-0.6927,-0.6937,-0.696,-0.697,-0.6983,-0.6995,-0.7024,-0.7041,-0.7049,-0.7063,-0.7085,-0.7105,-0.7108,-0.7116,-0.7121,-0.7124,-0.7094,-0.709,-0.7086,-0.708,-0.7123,-0.7123,-0.7155,-0.7155,-0.7156]}]]